TimeCDT,TemperatureF,Dew PointF,Humidity,Sea Level PressureIn,VisibilityMPH,Wind Direction,Wind SpeedMPH,Gust SpeedMPH,PrecipitationIn,Events,Conditions,WindDirDegrees,DateUTC
12:15 AM,53.6,48.2,82,30.01,4.0,North,6.9,-,N/A,,Haze,360,2012-10-27 05:15:00
12:55 AM,53.6,48.2,82,30.01,4.0,North,8.1,-,N/A,,Haze,360,2012-10-27 05:55:00
1:15 AM,53.6,48.2,82,30.00,3.0,North,8.1,-,N/A,,Haze,360,2012-10-27 06:15:00
1:35 AM,51.8,46.4,82,30.00,4.0,North,6.9,-,N/A,,Haze,360,2012-10-27 06:35:00
1:55 AM,51.8,46.4,82,30.00,4.0,North,9.2,-,N/A,,Haze,10,2012-10-27 06:55:00
2:15 AM,51.8,46.4,82,30.00,4.0,North,8.1,-,N/A,,Haze,360,2012-10-27 07:15:00
2:35 AM,51.8,46.4,82,29.99,4.0,North,8.1,-,N/A,,Haze,360,2012-10-27 07:35:00
3:15 AM,50.0,46.4,87,29.99,4.0,North,6.9,-,N/A,,Overcast,360,2012-10-27 08:15:00
3:35 AM,50.0,46.4,87,29.98,4.0,North,8.1,-,N/A,,Overcast,10,2012-10-27 08:35:00
3:55 AM,50.0,46.4,87,29.98,5.0,North,6.9,-,N/A,,Haze,350,2012-10-27 08:55:00
4:15 AM,50.0,46.4,87,29.99,4.0,NNW,5.8,-,N/A,,Haze,340,2012-10-27 09:15:00
4:35 AM,50.0,46.4,87,29.98,4.0,North,5.8,-,N/A,Rain,Light Rain,360,2012-10-27 09:35:00
4:55 AM,50.0,46.4,87,29.99,4.0,North,8.1,-,N/A,,Overcast,350,2012-10-27 09:55:00
5:15 AM,50.0,46.4,87,29.99,4.0,North,6.9,-,N/A,,Overcast,350,2012-10-27 10:15:00
5:55 AM,50.0,44.6,82,30.00,4.0,NNW,6.9,-,N/A,,Haze,340,2012-10-27 10:55:00
6:15 AM,50.0,44.6,82,29.99,4.0,North,8.1,-,N/A,,Haze,10,2012-10-27 11:15:00
6:35 AM,48.2,44.6,87,30.00,5.0,North,5.8,-,N/A,,Overcast,350,2012-10-27 11:35:00
6:55 AM,48.2,44.6,87,30.01,5.0,North,8.1,-,N/A,,Overcast,360,2012-10-27 11:55:00
7:15 AM,48.2,44.6,87,30.01,5.0,North,8.1,-,N/A,,Haze,360,2012-10-27 12:15:00
7:35 AM,50.0,44.6,82,30.01,3.0,NNE,11.5,-,N/A,,Haze,20,2012-10-27 12:35:00
7:55 AM,48.2,44.6,87,30.02,4.0,North,8.1,-,N/A,,Haze,10,2012-10-27 12:55:00
8:15 AM,48.2,42.8,82,30.03,4.0,North,10.4,-,N/A,,Haze,360,2012-10-27 13:15:00
8:35 AM,48.2,42.8,82,30.03,4.0,North,10.4,-,N/A,,Haze,360,2012-10-27 13:35:00
8:55 AM,48.2,42.8,82,30.04,3.0,North,10.4,-,N/A,,Haze,360,2012-10-27 13:55:00
9:15 AM,48.2,42.8,82,30.03,4.0,North,9.2,-,N/A,,Haze,10,2012-10-27 14:15:00
9:35 AM,48.2,42.8,82,30.03,4.0,North,8.1,-,N/A,,Haze,10,2012-10-27 14:35:00
9:55 AM,48.2,42.8,82,30.03,3.0,NNE,9.2,16.1,N/A,,Haze,30,2012-10-27 14:55:00
10:15 AM,48.2,42.8,82,30.03,4.0,NNE,12.7,19.6,N/A,,Haze,20,2012-10-27 15:15:00
10:35 AM,50.0,42.8,76,30.02,4.0,NNE,11.5,16.1,N/A,,Haze,30,2012-10-27 15:35:00
10:55 AM,50.0,44.6,82,30.02,3.0,NNE,12.7,16.1,N/A,,Haze,30,2012-10-27 15:55:00
11:15 AM,50.0,42.8,76,30.01,3.0,NNE,10.4,18.4,N/A,,Haze,20,2012-10-27 16:15:00
11:55 AM,53.6,44.6,72,29.99,4.0,NNE,9.2,-,N/A,,Haze,30,2012-10-27 16:55:00
12:15 PM,55.4,44.6,67,29.98,4.0,North,6.9,-,N/A,,Haze,360,2012-10-27 17:15:00
12:35 PM,55.4,44.6,67,29.97,4.0,North,9.2,-,N/A,,Haze,360,2012-10-27 17:35:00
12:55 PM,55.4,44.6,67,29.96,5.0,NNW,6.9,-,N/A,,Haze,340,2012-10-27 17:55:00
1:15 PM,55.4,44.6,67,29.95,5.0,NNW,10.4,-,N/A,,Haze,340,2012-10-27 18:15:00
1:55 PM,57.2,44.6,63,29.94,4.0,NNE,11.5,17.3,N/A,,Haze,20,2012-10-27 18:55:00
2:15 PM,57.2,44.6,63,29.93,4.0,North,12.7,17.3,N/A,,Haze,350,2012-10-27 19:15:00
2:35 PM,55.4,44.6,67,29.93,4.0,North,11.5,18.4,N/A,,Haze,350,2012-10-27 19:35:00
2:55 PM,55.4,44.6,67,29.93,4.0,North,13.8,23.0,N/A,,Haze,350,2012-10-27 19:55:00
3:15 PM,55.4,44.6,67,29.93,4.0,North,10.4,17.3,N/A,,Haze,360,2012-10-27 20:15:00
3:35 PM,53.6,44.6,72,29.93,4.0,North,9.2,21.9,N/A,,Haze,360,2012-10-27 20:35:00
3:55 PM,53.6,44.6,72,29.94,4.0,North,15.0,23.0,N/A,,Haze,10,2012-10-27 20:55:00
4:15 PM,53.6,44.6,72,29.94,3.0,North,13.8,24.2,N/A,,Haze,360,2012-10-27 21:15:00
4:35 PM,50.0,44.6,82,29.95,3.0,NNE,13.8,23.0,N/A,,Haze,20,2012-10-27 21:35:00
5:15 PM,50.0,44.6,82,29.96,4.0,North,10.4,18.4,N/A,,Haze,360,2012-10-27 22:15:00
5:35 PM,50.0,42.8,76,29.96,3.0,North,9.2,-,N/A,,Haze,360,2012-10-27 22:35:00
5:55 PM,50.0,42.8,76,29.96,4.0,North,11.5,16.1,N/A,,Haze,360,2012-10-27 22:55:00
6:15 PM,50.0,42.8,76,29.96,5.0,North,12.7,17.3,N/A,,Haze,10,2012-10-27 23:15:00
6:35 PM,50.0,42.8,76,29.96,5.0,NNE,12.7,19.6,N/A,,Haze,20,2012-10-27 23:35:00
6:55 PM,50.0,42.8,76,29.96,5.0,North,9.2,18.4,N/A,,Haze,10,2012-10-27 23:55:00
7:15 PM,50.0,42.8,76,29.96,5.0,North,12.7,18.4,N/A,,Haze,10,2012-10-28 00:15:00
7:35 PM,50.0,42.8,76,29.96,5.0,North,9.2,-,N/A,,Haze,360,2012-10-28 00:35:00
7:55 PM,50.0,42.8,76,29.97,5.0,North,11.5,16.1,N/A,,Haze,10,2012-10-28 00:55:00
8:15 PM,50.0,42.8,76,29.97,4.0,North,9.2,16.1,N/A,,Haze,10,2012-10-28 01:15:00
8:35 PM,50.0,42.8,76,29.97,5.0,North,8.1,-,N/A,,Haze,10,2012-10-28 01:35:00
8:55 PM,50.0,42.8,76,29.98,5.0,NNE,10.4,16.1,N/A,,Haze,20,2012-10-28 01:55:00
9:15 PM,50.0,42.8,76,29.98,5.0,NNE,11.5,18.4,N/A,,Haze,20,2012-10-28 02:15:00
9:35 PM,50.0,42.8,76,29.97,5.0,NNE,11.5,17.3,N/A,,Haze,20,2012-10-28 02:35:00
9:55 PM,50.0,42.8,76,29.97,4.0,NNE,10.4,18.4,N/A,,Haze,20,2012-10-28 02:55:00
10:15 PM,50.0,42.8,76,29.96,5.0,NNE,9.2,-,N/A,,Haze,30,2012-10-28 03:15:00
10:35 PM,50.0,42.8,76,29.95,5.0,NNE,12.7,23.0,N/A,,Haze,30,2012-10-28 03:35:00
10:55 PM,50.0,42.8,76,29.94,5.0,NNE,12.7,17.3,N/A,,Haze,20,2012-10-28 03:55:00
11:15 PM,50.0,42.8,76,29.94,5.0,NNE,11.5,-,N/A,,Haze,20,2012-10-28 04:15:00
11:35 PM,50.0,42.8,76,29.94,5.0,NNE,9.2,16.1,N/A,,Haze,20,2012-10-28 04:35:00
11:55 PM,50.0,42.8,76,29.94,5.0,North,6.9,-,N/A,,Haze,10,2012-10-28 04:55:00